DW5049 Jena DE current weather conditions

sailwx.info

Wind from 076

Air temperature 12.2° C
Dewpoint 10.0° C

Last reported at 2018-Jul-20 06:00 UTC.
Time now 2018-Jul-20 06:48 UTC

Location: N 50°54' E 011°33'.
View on Google Maps.

See reports from other nearby stations

  
Tides and Currents Weather Stations Pressure Air Temp Water Temp Dewpoint Dewpoint Depression Visibility Wind Speed Wind Dir Waves Ship Positions
date/time (UTC)wind fromknots sea level pressurealtimeterstation pressurevisibilityair tempwater tempwave heightnotes
2018-Jul-20 06:00 076 12.2
2018-Jul-20 05:45 076 11.7
2018-Jul-20 05:30 076 0 gusting 2 11.7
2018-Jul-20 05:15 212 11.1
2018-Jul-20 05:00 212 11.1
2018-Jul-20 04:45 212 0 gusting 2 10.6
2018-Jul-20 04:30 300 10.6
2018-Jul-20 04:15 300 10.6
2018-Jul-20 04:00 300 10.6
2018-Jul-20 03:44 300 10.6
2018-Jul-20 03:29 300 10.6
2018-Jul-20 03:14 240 0 gusting 2 11.1
2018-Jul-20 02:59 300 11.1
2018-Jul-20 02:44 300 11.1
2018-Jul-20 02:29 300 11.7
2018-Jul-20 02:14 300 0 gusting 1 12.2
2018-Jul-20 01:59 300 12.2
2018-Jul-20 01:44 273 0 gusting 2 12.8
2018-Jul-20 01:29 317 12.8
2018-Jul-20 01:14 281 12.8
2018-Jul-20 00:59 281 2 gusting 4 13.3
2018-Jul-20 00:44 193 13.3
2018-Jul-20 00:29 331 0 gusting 2 13.3
2018-Jul-20 00:14 309 13.3
2018-Jul-19 23:59 302 13.3
2018-Jul-19 23:44 259 13.9
2018-Jul-19 23:29 309 0 gusting 3 13.9
2018-Jul-19 23:14 337 1 gusting 3 13.9
2018-Jul-19 22:59 313 0 gusting 2 14.4
2018-Jul-19 22:44 313 0 gusting 2 14.4
2018-Jul-19 22:29 313 1 gusting 3 15.0
2018-Jul-19 22:14 309 0 gusting 3 15.0
2018-Jul-19 21:59 324 1 gusting 3 15.0
2018-Jul-19 21:44 322 1 gusting 3 15.6
2018-Jul-19 21:29 323 1 gusting 3 15.6
2018-Jul-19 21:14 322 0 gusting 3 16.1
2018-Jul-19 20:59 315 1 gusting 3 16.7
2018-Jul-19 20:44 319 0 gusting 3 17.2
2018-Jul-19 20:29 317 1 gusting 3 17.2
2018-Jul-19 20:14 321 1 gusting 3 17.8
2018-Jul-19 19:59 327 0 gusting 3 18.3
2018-Jul-19 19:44 329 1 gusting 3 18.9
2018-Jul-19 19:29 317 1 gusting 3 19.4
2018-Jul-19 19:14 316 0 gusting 3 20.0
2018-Jul-19 18:59 318 1 gusting 3 20.6
2018-Jul-19 18:44 331 1 gusting 3 21.7
2018-Jul-19 18:29 324 1 gusting 3 22.8
2018-Jul-19 18:14 324 1 gusting 3 24.4
2018-Jul-19 17:59 042 25.0
2018-Jul-19 17:44 049 3 gusting 6 25.6
2018-Jul-19 17:29 071 0 gusting 4 26.1
2018-Jul-19 17:14 355 1 gusting 5 26.7
2018-Jul-19 16:59 336 27.2
2018-Jul-19 16:43 355 0 gusting 5 27.8
2018-Jul-19 16:28 071 1 gusting 4 27.8
2018-Jul-19 16:13 329 1 gusting 7 27.8
2018-Jul-19 15:59 061 0 gusting 6 28.3
2018-Jul-19 15:43 031 2 gusting 7 28.3
2018-Jul-19 15:28 131 2 gusting 6 28.3
2018-Jul-19 15:13 169 1 gusting 6 28.3
2018-Jul-19 14:59 083 2 gusting 6 28.9
2018-Jul-19 14:43 161 28.9
2018-Jul-19 14:28 293 1 gusting 6 28.9
2018-Jul-19 14:13 273 28.3
2018-Jul-19 13:59 255 3 gusting 7 28.9
2018-Jul-19 13:43 279 2 gusting 9 28.9
2018-Jul-19 13:28 089 1 gusting 7 28.3
2018-Jul-19 13:13 284 2 gusting 6 27.8
2018-Jul-19 12:59 305 1 gusting 6 27.8
2018-Jul-19 12:43 059 2 gusting 6 28.3
2018-Jul-19 12:28 113 0 gusting 5 27.8
2018-Jul-19 12:13 252 27.2
2018-Jul-19 11:59 177 2 gusting 5 27.2
2018-Jul-19 11:43 110 0 gusting 6 26.7
2018-Jul-19 11:28 158 3 gusting 9 26.1
2018-Jul-19 11:13 331 4 gusting 8 26.1
2018-Jul-19 10:59 258 2 gusting 8 26.7
2018-Jul-19 10:43 041 4 gusting 9 26.1
2018-Jul-19 10:28 333 2 gusting 7 25.6
2018-Jul-19 10:13 067 1 gusting 10 25.0
2018-Jul-19 09:58 183 1 gusting 9 24.4
2018-Jul-19 09:43 360 24.4
2018-Jul-19 09:28 305 2 gusting 9 24.4
2018-Jul-19 09:13 061 3 gusting 6 24.4
2018-Jul-19 08:57 051 23.9
2018-Jul-19 08:42 295 0 gusting 5 23.3
2018-Jul-19 08:27 048 1 gusting 8 22.8
2018-Jul-19 08:12 284 3 gusting 6 21.7
2018-Jul-19 07:58 054 0 gusting 5 21.1
2018-Jul-19 07:43 013 2 gusting 6 20.0
2018-Jul-19 07:27 315 1 gusting 6 18.3
2018-Jul-19 07:12 238 1 gusting 6 17.8
2018-Jul-19 06:57 151 1 gusting 6 16.1
2018-Jul-19 06:42 323 2 gusting 5 15.0
2018-Jul-19 06:27 067 13.9
2018-Jul-19 06:12 074 13.3
2018-Jul-19 05:57 061 12.8
2018-Jul-19 05:42 096 12.2
2018-Jul-19 05:27 093 11.7
2018-Jul-19 05:12 288 11.1
2018-Jul-19 04:57 288 11.1
2018-Jul-19 04:42 288 10.6
2018-Jul-19 04:27 288 10.6
2018-Jul-19 04:12 288 10.6
2018-Jul-19 03:56 288 11.1
2018-Jul-19 03:41 288 11.1
2018-Jul-19 03:26 288 11.7
2018-Jul-19 03:11 315 11.7
2018-Jul-19 02:56 315 11.7
2018-Jul-19 02:41 315 0 gusting 3 11.7
2018-Jul-19 02:26 315 12.2
2018-Jul-19 02:11 315 12.8
2018-Jul-19 01:56 315 13.3
2018-Jul-19 01:41 315 13.3
2018-Jul-19 01:26 315 0 gusting 4 13.3
2018-Jul-19 01:11 315 2 gusting 5 13.9
2018-Jul-19 00:56 309 2 gusting 4 13.9
2018-Jul-19 00:41 316 2 gusting 4 13.9
2018-Jul-19 00:26 319 2 gusting 4 13.9
2018-Jul-19 00:11 318 0 gusting 3 13.9
2018-Jul-18 23:56 328 0 gusting 4 14.4
2018-Jul-18 23:41 327 1 gusting 4 14.4
2018-Jul-18 23:26 308 2 gusting 5 14.4
2018-Jul-18 23:11 311 1 gusting 5 14.4
2018-Jul-18 22:56 321 2 gusting 4 15.0
2018-Jul-18 22:41 318 1 gusting 5 15.0
2018-Jul-18 22:26 259 1 gusting 4 15.0
2018-Jul-18 22:11 317 1 gusting 4 15.6
2018-Jul-18 21:56 317 1 gusting 4 15.6
2018-Jul-18 21:41 312 1 gusting 4 15.6
2018-Jul-18 21:26 321 1 gusting 4 16.1
2018-Jul-18 21:11 323 0 gusting 3 16.1
2018-Jul-18 20:56 324 16.7
2018-Jul-18 20:41 326 17.8
2018-Jul-18 20:26 326 17.8
2018-Jul-18 20:11 326 1 gusting 3 18.3
2018-Jul-18 19:55 319 1 gusting 3 18.9
2018-Jul-18 19:40 306 20.0
2018-Jul-18 19:25 306 20.6
2018-Jul-18 19:10 324 21.7
2018-Jul-18 18:55 324 22.8
2018-Jul-18 18:40 026 23.3
2018-Jul-18 18:25 027 0 gusting 4 23.9
2018-Jul-18 18:10 288 0 gusting 5 24.4
2018-Jul-18 17:55 104 24.4
2018-Jul-18 17:40 333 3 gusting 6 25.0
2018-Jul-18 17:25 339 25.6
2018-Jul-18 17:10 222 3 gusting 7 26.1
2018-Jul-18 16:55 333 26.7
2018-Jul-18 16:40 300 2 gusting 9 26.7
2018-Jul-18 16:25 235 1 gusting 7 26.7
2018-Jul-18 16:10 268 3 gusting 9 26.7
2018-Jul-18 15:55 232 0 gusting 9 27.2
2018-Jul-18 15:40 296 5 gusting 8 27.2
2018-Jul-18 15:25 344 3 gusting 8 27.2
2018-Jul-18 15:10 274 4 gusting 9 27.2
2018-Jul-18 14:55 330 3 gusting 9 27.8
2018-Jul-18 14:40 005 2 gusting 11 27.8
2018-Jul-18 14:25 329 2 gusting 9 27.8
2018-Jul-18 14:10 072 1 gusting 12 27.2
2018-Jul-18 13:55 258 5 gusting 11 27.8
2018-Jul-18 13:40 255 5 gusting 13 27.8
2018-Jul-18 13:25 303 5 gusting 12 27.8
2018-Jul-18 13:10 308 4 gusting 11 27.8
2018-Jul-18 12:55 057 4 gusting 9 28.3
2018-Jul-18 12:40 340 3 gusting 10 28.3
2018-Jul-18 12:25 316 2 gusting 8 28.3
2018-Jul-18 12:10 306 6 gusting 12 28.3
2018-Jul-18 11:55 093 1 gusting 7 28.3
2018-Jul-18 11:40 294 3 gusting 9 27.8
2018-Jul-18 11:25 323 6 gusting 13 27.8
2018-Jul-18 11:10 287 0 gusting 12 27.2
2018-Jul-18 10:55 287 1 gusting 10 26.7
2018-Jul-18 10:40 310 6 gusting 12 26.1
2018-Jul-18 10:25 308 2 gusting 10 26.1
2018-Jul-18 10:10 321 5 gusting 10 25.6
2018-Jul-18 09:54 090 3 gusting 12 26.1
2018-Jul-18 09:39 178 1 gusting 7 26.1
2018-Jul-18 09:24 315 1 gusting 10 25.6
2018-Jul-18 09:09 313 1 gusting 10 25.0
2018-Jul-18 08:54 337 5 gusting 9 24.4
2018-Jul-18 08:39 306 2 gusting 7 23.9
2018-Jul-18 08:24 122 1 gusting 13 22.8
2018-Jul-18 08:09 291 3 gusting 8 22.2
2018-Jul-18 07:54 306 4 gusting 11 21.7
2018-Jul-18 07:39 360 4 gusting 9 21.1
2018-Jul-18 07:24 310 2 gusting 8 21.1
2018-Jul-18 07:09 317 0 gusting 7 20.6
2018-Jul-18 06:54 005 2 gusting 6 20.6
2018-Jul-18 06:39 311 0 gusting 6 20.0
2018-Jul-18 06:24 321 0 gusting 7 20.0
2018-Jul-18 06:09 259 19.4